QPF
0.01 0.01 0.02 0.05 0.07 0.07 0.10 0.09 0.07 0.06 0.04 0.03 0.02 0.01 0.01 0.00 0.00 0.02 0.03 0.03 0.07 0.09 0.10 0.09 0.09 0.08 0.08 0.07 0.09 0.07 0.04 0.05 0.16 0.13 0.10 0.08 0.08 0.07 0.07 0.06 0.07 0.08 0.09
0.01 0.01 0.01 0.02 0.04 0.05 0.06 0.06 0.06 0.06 0.04 0.03 0.03 0.02 0.01 0.01 0.01 0.02 0.03 0.03 0.03 0.08 0.11 0.11 0.12 0.09 0.07 0.07 0.06 0.04 0.03 0.07 0.37 0.32 0.18 0.09 0.07 0.06 0.05 0.06 0.09 0.10 0.10
0.01 0.01 0.01 0.01 0.02 0.03 0.03 0.03 0.05 0.06 0.04 0.03 0.02 0.02 0.01 0.01 0.02 0.02 0.02 0.03 0.03 0.05 0.08 0.09 0.08 0.07 0.07 0.06 0.05 0.04 0.04 0.06 0.27 0.38 0.23 0.11 0.07 0.07 0.06 0.07 0.09 0.11 0.11
0.02 0.01 0.02 0.02 0.02 0.03 0.03 0.03 0.04 0.05 0.03 0.02 0.01 0.01 0.00 0.00 0.00 0.00 0.00 0.01 0.02 0.03 0.05 0.05 0.04 0.05 0.05 0.04 0.03 0.05 0.04 0.05 0.12 0.23 0.18 0.09 0.07 0.08 0.08 0.09 0.09 0.10 0.16
0.01 0.02 0.03 0.02 0.02 0.03 0.04 0.04 0.04 0.03 0.02 0.01 0.00 0.00 0.00 0.01 0.01 0.01 0.01 0.01 0.01 0.01 0.02 0.03 0.02 0.03 0.03 0.02 0.02 0.03 0.03 0.04 0.06 0.09 0.10 0.09 0.08 0.09 0.09 0.09 0.07 0.06 0.14
0.01 0.02 0.02 0.02 0.02 0.02 0.03 0.04 0.05 0.05 0.03 0.01 0.01 0.00 0.00 0.01 0.02 0.02 0.02 0.01 0.01 0.01 0.02 0.02 0.03 0.02 0.02 0.02 0.01 0.03 0.02 0.02 0.04 0.06 0.07 0.08 0.08 0.08 0.08 0.08 0.06 0.05 0.05
0.01 0.02 0.02 0.02 0.02 0.02 0.03 0.04 0.05 0.04 0.03 0.02 0.01 0.01 0.01 0.02 0.02 0.01 0.01 0.02 0.02 0.02 0.02 0.03 0.04 0.03 0.02 0.02 0.02 0.04 0.03 0.02 0.04 0.06 0.07 0.07 0.07 0.07 0.07 0.07 0.07 0.07 0.07
0.01 0.02 0.02 0.02 0.01 0.02 0.02 0.03 0.04 0.04 0.03 0.03 0.02 0.03 0.02 0.02 0.02 0.01 0.02 0.02 0.03 0.03 0.02 0.02 0.03 0.04 0.03 0.02 0.04 0.05 0.05 0.04 0.05 0.04 0.05 0.06 0.07 0.08 0.09 0.10 0.11 0.10 0.09
0.00 0.00 0.01 0.01 0.01 0.01 0.02 0.02 0.03 0.04 0.05 0.03 0.02 0.02 0.03 0.04 0.05 0.05 0.04 0.03 0.03 0.02 0.02 0.02 0.01 0.02 0.03 0.03 0.03 0.04 0.04 0.04 0.04 0.04 0.05 0.06 0.06 0.09 0.14 0.16 0.17 0.13 0.10
0.00 0.00 0.01 0.01 0.00 0.01 0.01 0.01 0.02 0.03 0.04 0.03 0.02 0.02 0.01 0.03 0.05 0.08 0.07 0.04 0.02 0.02 0.02 0.01 0.01 0.01 0.01 0.02 0.03 0.04 0.03 0.03 0.03 0.03 0.05 0.05 0.06 0.11 0.15 0.12 0.06 0.03 0.05
0.01 0.00 0.00 0.01 0.01 0.01 0.01 0.01 0.01 0.02 0.02 0.02 0.03 0.03 0.02 0.03 0.06 0.07 0.08 0.06 0.04 0.04 0.03 0.01 0.01 0.01 0.01 0.01 0.01 0.01 0.01 0.02 0.03 0.02 0.03 0.03 0.04 0.09 0.12 0.12 0.06 0.04 0.03
0.00 0.00 0.00 0.01 0.01 0.00 0.01 0.01 0.01 0.02 0.02 0.02 0.03 0.03 0.03 0.04 0.05 0.04 0.06 0.06 0.04 0.03 0.02 0.01 0.01 0.02 0.01 0.00 0.00 0.01 0.01 0.01 0.02 0.01 0.02 0.02 0.02 0.05 0.08 0.09 0.08 0.05 0.05
0.00 0.00 0.00 0.00 0.00 0.00 0.01 0.01 0.01 0.01 0.01 0.02 0.03 0.04 0.04 0.03 0.04 0.04 0.04 0.02 0.02 0.01 0.02 0.02 0.01 0.01 0.01 0.01 0.01 0.01 0.01 0.01 0.01 0.00 0.00 0.00 0.01 0.02 0.03 0.05 0.06 0.06 0.06
0.00 0.00 0.00 0.01 0.00 0.00 0.00 0.01 0.02 0.01 0.01 0.01 0.02 0.04 0.06 0.05 0.05 0.03 0.02 0.02 0.01 0.01 0.01 0.01 0.00 0.00 0.00 0.00 0.00 0.01 0.01 0.01 0.00 0.00 0.00 0.00 0.01 0.01 0.01 0.01 0.02 0.01 0.02
0.00 0.00 0.00 0.01 0.01 0.00 0.01 0.01 0.01 0.01 0.01 0.01 0.03 0.03 0.05 0.08 0.07 0.04 0.03 0.03 0.02 0.02 0.01 0.01 0.00 0.00 0.00 0.00 0.00 0.00 0.00 0.00 0.00 0.00 0.00 0.00 0.00 0.00 0.00 0.00 0.00 0.00 0.00
0.00 0.00 0.00 0.01 0.01 0.01 0.01 0.01 0.02 0.01 0.01 0.02 0.03 0.04 0.04 0.05 0.07 0.05 0.04 0.03 0.02 0.02 0.02 0.01 0.00 0.00 0.00 0.00 0.00 0.01 0.01 0.00 0.00 0.00 0.00 0.00 0.00 0.00 0.00 0.00 0.00 0.00 0.00
0.00 0.00 0.00 0.00 0.01 0.02 0.02 0.02 0.02 0.02 0.02 0.02 0.03 0.04 0.03 0.03 0.06 0.06 0.05 0.04 0.03 0.03 0.03 0.02 0.01 0.00 0.00 0.00 0.00 0.00 0.00 0.00 0.00 0.00 0.00 0.00 0.00 0.00 0.00 0.00 0.00 0.00 0.00
0.01 0.01 0.00 0.00 0.01 0.01 0.01 0.01 0.01 0.02 0.02 0.02 0.02 0.03 0.04 0.03 0.03 0.04 0.03 0.03 0.03 0.03 0.02 0.01 0.00 0.00 0.00 0.01 0.00 0.00 0.00 0.00 0.00 0.00 0.00 0.01 0.01 0.00 0.00 0.00 0.00 0.00 0.00
0.01 0.00 0.00 0.01 0.01 0.01 0.01 0.01 0.01 0.01 0.01 0.01 0.01 0.02 0.04 0.05 0.05 0.03 0.02 0.01 0.01 0.01 0.01 0.00 0.00 0.00 0.00 0.01 0.00 0.00 0.00 0.00 0.00 0.00 0.00 0.01 0.01 0.01 0.01 0.00 0.00 0.00 0.00
0.01 0.01 0.01 0.01 0.01 0.01 0.01 0.01 0.01 0.02 0.02 0.01 0.01 0.01 0.02 0.04 0.07 0.05 0.02 0.01 0.01 0.01 0.01 0.01 0.00 0.00 0.01 0.01 0.00 0.00 0.00 0.00 0.00 0.00 0.00 0.00 0.00 0.00 0.01 0.01 0.01 0.01 0.01
0.01 0.01 0.01 0.01 0.01 0.02 0.01 0.01 0.02 0.01 0.01 0.01 0.01 0.01 0.01 0.02 0.05 0.07 0.03 0.02 0.02 0.01 0.01 0.01 0.01 0.00 0.00 0.00 0.00 0.00 0.00 0.00 0.00 0.00 0.00 0.00 0.01 0.01 0.00 0.01 0.01 0.01 0.01
0.01 0.01 0.02 0.02 0.01 0.01 0.01 0.01 0.02 0.01 0.01 0.01 0.00 0.00 0.01 0.01 0.02 0.03 0.03 0.03 0.03 0.02 0.01 0.01 0.01 0.01 0.01 0.01 0.01 0.01 0.01 0.01 0.01 0.01 0.01 0.01 0.01 0.01 0.01 0.00 0.01 0.01 0.01
0.02 0.02 0.02 0.02 0.01 0.01 0.01 0.01 0.01 0.01 0.01 0.01 0.00 0.00 0.00 0.01 0.01 0.02 0.02 0.02 0.02 0.02 0.01 0.01 0.01 0.01 0.01 0.01 0.01 0.01 0.01 0.01 0.01 0.01 0.01 0.01 0.01 0.01 0.01 0.00 0.00 0.01 0.01
0.01 0.01 0.02 0.02 0.02 0.02 0.01 0.01 0.01 0.01 0.00 0.01 0.01 0.01 0.01 0.01 0.01 0.02 0.02 0.01 0.01 0.01 0.01 0.01 0.01 0.01 0.00 0.00 0.01 0.01 0.01 0.01 0.01 0.01 0.01 0.01 0.01 0.00 0.00 0.00 0.01 0.01 0.01
0.01 0.01 0.02 0.01 0.01 0.02 0.01 0.01 0.01 0.01 0.01 0.01 0.01 0.01 0.01 0.01 0.01 0.01 0.01 0.01 0.01 0.01 0.01 0.01 0.01 0.01 0.01 0.01 0.01 0.01 0.01 0.01 0.01 0.01 0.01 0.01 0.01 0.00 0.00 0.00 0.01 0.01 0.01
0.01 0.01 0.02 0.01 0.01 0.02 0.02 0.01 0.01 0.01 0.01 0.01 0.01 0.01 0.01 0.01 0.01 0.01 0.01 0.01 0.02 0.01 0.01 0.01 0.01 0.01 0.01 0.01 0.01 0.01 0.02 0.02 0.02 0.02 0.01 0.01 0.01 0.01 0.01 0.00 0.01 0.01 0.01
MSLP
1016.63 1016.74 1016.88 1017.04 1017.21 1017.36 1017.46 1017.52 1017.51 1017.45 1017.34 1017.22 1017.12 1017.04 1017.01 1016.99 1016.96 1016.84 1016.58 1016.12 1015.43 1014.52 1013.43 1012.27 1011.16 1010.22 1009.54 1009.20 1009.20 1009.50 1010.01 1010.62 1011.23 1011.74 1012.12 1012.34 1012.45 1012.49 1012.51 1012.57 1012.68 1012.83 1013.00
1016.99 1017.10 1017.26 1017.44 1017.64 1017.82 1017.96 1018.04 1018.06 1018.01 1017.93 1017.83 1017.76 1017.71 1017.70 1017.69 1017.65 1017.49 1017.15 1016.58 1015.74 1014.67 1013.43 1012.13 1010.89 1009.87 1009.15 1008.80 1008.84 1009.20 1009.79 1010.50 1011.21 1011.83 1012.29 1012.59 1012.76 1012.84 1012.89 1012.97 1013.08 1013.24 1013.42
1017.36 1017.46 1017.62 1017.83 1018.05 1018.26 1018.43 1018.54 1018.58 1018.56 1018.50 1018.43 1018.38 1018.36 1018.38 1018.39 1018.35 1018.17 1017.80 1017.16 1016.26 1015.11 1013.79 1012.41 1011.11 1010.04 1009.30 1008.94 1008.98 1009.37 1009.99 1010.75 1011.51 1012.17 1012.68 1013.03 1013.24 1013.35 1013.42 1013.50 1013.62 1013.77 1013.94
1017.72 1017.80 1017.95 1018.17 1018.41 1018.64 1018.84 1018.97 1019.03 1019.03 1018.99 1018.94 1018.91 1018.93 1018.97 1019.02 1019.01 1018.86 1018.51 1017.89 1017.00 1015.86 1014.55 1013.18 1011.89 1010.82 1010.07 1009.70 1009.72 1010.07 1010.67 1011.40 1012.14 1012.79 1013.31 1013.67 1013.89 1014.01 1014.09 1014.17 1014.28 1014.42 1014.57
1018.05 1018.10 1018.23 1018.44 1018.69 1018.93 1019.15 1019.30 1019.37 1019.38 1019.35 1019.31 1019.31 1019.35 1019.43 1019.53 1019.58 1019.51 1019.24 1018.72 1017.93 1016.90 1015.69 1014.42 1013.20 1012.17 1011.44 1011.05 1011.02 1011.30 1011.81 1012.44 1013.10 1013.69 1014.16 1014.49 1014.70 1014.82 1014.90 1014.97 1015.06 1015.17 1015.30
1018.35 1018.35 1018.46 1018.65 1018.89 1019.14 1019.35 1019.51 1019.59 1019.60 1019.57 1019.55 1019.55 1019.62 1019.75 1019.90 1020.04 1020.07 1019.94 1019.59 1018.98 1018.13 1017.11 1016.00 1014.92 1013.99 1013.29 1012.88 1012.78 1012.95 1013.32 1013.82 1014.34 1014.82 1015.20 1015.47 1015.65 1015.75 1015.81 1015.87 1015.94 1016.02 1016.10
1018.61 1018.58 1018.65 1018.81 1019.03 1019.27 1019.48 1019.63 1019.71 1019.72 1019.69 1019.66 1019.68 1019.77 1019.93 1020.15 1020.38 1020.54 1020.57 1020.42 1020.03 1019.43 1018.65 1017.77 1016.87 1016.06 1015.42 1015.01 1014.83 1014.88 1015.09 1015.41 1015.77 1016.10 1016.37 1016.57 1016.69 1016.76 1016.80 1016.84 1016.88 1016.93 1016.96
1018.86 1018.78 1018.82 1018.95 1019.15 1019.37 1019.56 1019.70 1019.77 1019.77 1019.74 1019.71 1019.73 1019.83 1020.02 1020.30 1020.60 1020.89 1021.09 1021.13 1020.99 1020.65 1020.14 1019.50 1018.82 1018.16 1017.61 1017.21 1016.97 1016.90 1016.95 1017.10 1017.28 1017.46 1017.61 1017.72 1017.78 1017.81 1017.83 1017.84 1017.85 1017.85 1017.84
1019.10 1018.99 1018.99 1019.10 1019.27 1019.46 1019.64 1019.76 1019.82 1019.81 1019.78 1019.75 1019.76 1019.87 1020.08 1020.38 1020.75 1021.12 1021.45 1021.67 1021.75 1021.66 1021.40 1021.02 1020.56 1020.09 1019.64 1019.28 1019.01 1018.85 1018.77 1018.76 1018.79 1018.83 1018.86 1018.87 1018.87 1018.86 1018.85 1018.83 1018.80 1018.76 1018.70
1019.33 1019.20 1019.18 1019.26 1019.40 1019.57 1019.72 1019.83 1019.89 1019.88 1019.85 1019.82 1019.83 1019.93 1020.14 1020.44 1020.82 1021.25 1021.66 1022.01 1022.25 1022.37 1022.35 1022.20 1021.96 1021.67 1021.36 1021.07 1020.81 1020.60 1020.44 1020.31 1020.22 1020.13 1020.06 1020.00 1019.93 1019.88 1019.82 1019.76 1019.70 1019.61 1019.50
1019.56 1019.43 1019.39 1019.43 1019.55 1019.69 1019.83 1019.93 1019.99 1019.99 1019.96 1019.94 1019.95 1020.04 1020.22 1020.50 1020.87 1021.29 1021.73 1022.15 1022.50 1022.77 1022.93 1022.99 1022.96 1022.85 1022.69 1022.50 1022.30 1022.09 1021.89 1021.70 1021.52 1021.35 1021.20 1021.07 1020.95 1020.84 1020.74 1020.63 1020.52 1020.39 1020.23
1019.78 1019.65 1019.60 1019.63 1019.71 1019.83 1019.95 1020.05 1020.10 1020.12 1020.11 1020.10 1020.11 1020.19 1020.34 1020.57 1020.89 1021.27 1021.69 1022.12 1022.53 1022.89 1023.19 1023.42 1023.56 1023.63 1023.63 1023.57 1023.46 1023.30 1023.12 1022.91 1022.69 1022.47 1022.27 1022.08 1021.91 1021.75 1021.60 1021.45 1021.28 1021.10 1020.90
1019.99 1019.87 1019.81 1019.82 1019.89 1019.98 1020.08 1020.17 1020.23 1020.26 1020.27 1020.28 1020.30 1020.36 1020.47 1020.65 1020.90 1021.22 1021.59 1021.99 1022.40 1022.81 1023.20 1023.55 1023.85 1024.09 1024.25 1024.33 1024.33 1024.26 1024.12 1023.94 1023.72 1023.49 1023.25 1023.03 1022.82 1022.62 1022.43 1022.23 1022.01 1021.78 1021.53
1020.19 1020.08 1020.03 1020.02 1020.06 1020.13 1020.21 1020.28 1020.35 1020.39 1020.43 1020.45 1020.48 1020.53 1020.62 1020.75 1020.93 1021.16 1021.46 1021.81 1022.20 1022.63 1023.07 1023.51 1023.93 1024.30 1024.61 1024.83 1024.95 1024.98 1024.93 1024.80 1024.61 1024.39 1024.16 1023.93 1023.70 1023.47 1023.24 1023.00 1022.75 1022.47 1022.18
1020.36 1020.28 1020.24 1020.22 1020.24 1020.28 1020.34 1020.40 1020.46 1020.52 1020.57 1020.61 1020.65 1020.70 1020.76 1020.85 1020.98 1021.15 1021.37 1021.66 1022.02 1022.44 1022.91 1023.40 1023.91 1024.38 1024.81 1025.15 1025.39 1025.52 1025.55 1025.50 1025.37 1025.19 1024.99 1024.77 1024.54 1024.31 1024.07 1023.81 1023.52 1023.21 1022.88
1020.52 1020.47 1020.44 1020.43 1020.43 1020.45 1020.48 1020.53 1020.58 1020.64 1020.70 1020.76 1020.81 1020.87 1020.92 1020.99 1021.07 1021.20 1021.37 1021.61 1021.93 1022.32 1022.79 1023.32 1023.87 1024.41 1024.92 1025.34 1025.68 1025.90 1026.01 1026.03 1025.97 1025.85 1025.70 1025.52 1025.33 1025.12 1024.90 1024.64 1024.36 1024.03 1023.68
1020.65 1020.64 1020.64 1020.63 1020.63 1020.64 1020.66 1020.68 1020.72 1020.78 1020.84 1020.91 1020.98 1021.05 1021.11 1021.18 1021.25 1021.34 1021.49 1021.69 1021.98 1022.35 1022.80 1023.32 1023.88 1024.45 1024.99 1025.46 1025.84 1026.13 1026.31 1026.39 1026.40 1026.35 1026.27 1026.16 1026.03 1025.89 1025.71 1025.50 1025.23 1024.92 1024.56
1020.73 1020.78 1020.81 1020.83 1020.84 1020.85 1020.85 1020.86 1020.89 1020.94 1021.01 1021.09 1021.18 1021.27 1021.35 1021.43 1021.51 1021.60 1021.74 1021.92 1022.18 1022.52 1022.95 1023.44 1023.97 1024.52 1025.05 1025.53 1025.92 1026.23 1026.45 1026.59 1026.66 1026.68 1026.68 1026.67 1026.63 1026.57 1026.47 1026.32 1026.11 1025.83 1025.48
1020.76 1020.86 1020.94 1020.99 1021.03 1021.04 1021.05 1021.06 1021.08 1021.13 1021.20 1021.30 1021.41 1021.52 1021.64 1021.75 1021.85 1021.97 1022.11 1022.29 1022.53 1022.84 1023.23 1023.67 1024.15 1024.65 1025.13 1025.57 1025.94 1026.24 1026.47 1026.64 1026.76 1026.86 1026.95 1027.02 1027.09 1027.13 1027.13 1027.07 1026.93 1026.70 1026.38
1020.71 1020.86 1020.99 1021.09 1021.16 1021.20 1021.22 1021.24 1021.27 1021.32 1021.40 1021.52 1021.65 1021.80 1021.96 1022.11 1022.26 1022.41 1022.58 1022.77 1023.00 1023.28 1023.62 1024.00 1024.42 1024.84 1025.25 1025.62 1025.94 1026.21 1026.43 1026.61 1026.76 1026.92 1027.08 1027.24 1027.41 1027.55 1027.65 1027.68 1027.63 1027.46 1027.18
1020.57 1020.77 1020.94 1021.09 1021.20 1021.27 1021.32 1021.35 1021.40 1021.47 1021.58 1021.72 1021.90 1022.09 1022.30 1022.50 1022.70 1022.90 1023.09 1023.30 1023.53 1023.79 1024.08 1024.40 1024.74 1025.09 1025.41 1025.71 1025.96 1026.19 1026.38 1026.55 1026.72 1026.91 1027.13 1027.36 1027.61 1027.84 1028.03 1028.14 1028.16 1028.06 1027.84
1020.34 1020.57 1020.79 1020.97 1021.12 1021.23 1021.31 1021.38 1021.46 1021.56 1021.70 1021.88 1022.10 1022.35 1022.61 1022.87 1023.13 1023.38 1023.62 1023.85 1024.08 1024.33 1024.59 1024.85 1025.13 1025.39 1025.64 1025.87 1026.06 1026.23 1026.39 1026.54 1026.72 1026.92 1027.16 1027.43 1027.72 1028.01 1028.26 1028.44 1028.53 1028.49 1028.31
1020.05 1020.29 1020.53 1020.75 1020.92 1021.07 1021.18 1021.29 1021.40 1021.55 1021.74 1021.97 1022.24 1022.55 1022.87 1023.20 1023.52 1023.82 1024.11 1024.37 1024.61 1024.85 1025.09 1025.32 1025.54 1025.76 1025.95 1026.12 1026.27 1026.39 1026.52 1026.65 1026.80 1027.00 1027.24 1027.51 1027.82 1028.12 1028.40 1028.61 1028.74 1028.74 1028.62
1019.73 1019.97 1020.21 1020.43 1020.63 1020.80 1020.95 1021.09 1021.25 1021.44 1021.68 1021.97 1022.31 1022.67 1023.07 1023.46 1023.84 1024.19 1024.52 1024.82 1025.08 1025.33 1025.56 1025.78 1025.98 1026.16 1026.32 1026.47 1026.58 1026.69 1026.79 1026.89 1027.02 1027.19 1027.40 1027.65 1027.93 1028.21 1028.48 1028.70 1028.83 1028.86 1028.78
1019.44 1019.65 1019.87 1020.08 1020.28 1020.46 1020.64 1020.82 1021.02 1021.26 1021.55 1021.90 1022.30 1022.73 1023.19 1023.64 1024.08 1024.48 1024.85 1025.18 1025.47 1025.73 1025.97 1026.19 1026.39 1026.58 1026.74 1026.88 1026.99 1027.09 1027.18 1027.27 1027.37 1027.50 1027.67 1027.87 1028.09 1028.33 1028.56 1028.75 1028.87 1028.91 1028.85
1019.20 1019.36 1019.55 1019.74 1019.93 1020.11 1020.30 1020.51 1020.75 1021.04 1021.38 1021.79 1022.24 1022.73 1023.24 1023.75 1024.24 1024.69 1025.09 1025.45 1025.77 1026.05 1026.31 1026.54 1026.76 1026.96 1027.14 1027.30 1027.43 1027.55 1027.64 1027.72 1027.80 1027.90 1028.01 1028.15 1028.31 1028.49 1028.66 1028.81 1028.91 1028.95 1028.90
Thickness
5721 5721 5720 5718 5719 5718 5718 5717 5717 5717 5717 5717 5717 5717 5717 5716 5716 5715 5713 5712 5712 5713 5714 5715 5715 5716 5716 5716 5717 5717 5717 5718 5719 5720 5721 5722 5722 5723 5724 5725 5725 5725 5726
5717 5717 5717 5715 5715 5714 5714 5714 5714 5712 5712 5711 5711 5711 5711 5711 5711 5710 5710 5709 5707 5708 5708 5709 5710 5711 5711 5712 5712 5712 5712 5713 5714 5716 5717 5717 5717 5717 5718 5719 5719 5720 5720
5714 5714 5714 5713 5712 5710 5711 5710 5710 5709 5708 5707 5706 5706 5706 5705 5705 5706 5705 5705 5704 5703 5703 5704 5704 5705 5706 5706 5706 5706 5707 5707 5708 5710 5711 5711 5711 5712 5712 5713 5713 5714 5714
5711 5710 5710 5710 5708 5707 5707 5706 5706 5705 5704 5704 5703 5702 5702 5700 5700 5700 5701 5701 5700 5700 5699 5698 5699 5699 5700 5700 5700 5701 5701 5701 5702 5703 5704 5704 5705 5705 5706 5706 5707 5707 5707
5708 5708 5707 5706 5706 5705 5704 5704 5702 5702 5700 5698 5698 5697 5697 5696 5695 5696 5697 5696 5696 5696 5696 5694 5693 5693 5694 5694 5695 5695 5696 5696 5696 5697 5697 5698 5698 5699 5699 5700 5700 5700 5701
5706 5705 5705 5704 5704 5703 5701 5700 5697 5697 5696 5695 5696 5694 5693 5692 5692 5691 5692 5691 5692 5692 5692 5691 5690 5688 5688 5689 5689 5689 5690 5690 5690 5690 5691 5692 5692 5693 5693 5694 5694 5694 5694
5704 5704 5704 5703 5701 5701 5699 5698 5696 5694 5693 5693 5692 5690 5690 5690 5688 5687 5687 5688 5688 5688 5687 5687 5686 5685 5684 5683 5683 5683 5684 5684 5684 5685 5685 5685 5686 5687 5687 5688 5688 5687 5687
5702 5702 5702 5701 5700 5697 5696 5695 5693 5692 5691 5691 5690 5688 5686 5685 5683 5684 5683 5683 5685 5684 5683 5683 5682 5681 5681 5680 5677 5677 5677 5678 5679 5679 5679 5679 5680 5680 5682 5682 5682 5681 5680
5700 5700 5700 5699 5698 5697 5695 5693 5692 5690 5688 5689 5690 5687 5684 5680 5680 5681 5681 5680 5680 5680 5679 5679 5678 5678 5677 5675 5674 5672 5672 5672 5673 5672 5672 5673 5674 5676 5679 5680 5678 5675 5674
5698 5697 5697 5697 5696 5696 5694 5693 5692 5690 5687 5686 5686 5686 5687 5684 5679 5676 5676 5677 5677 5676 5676 5675 5674 5673 5672 5671 5669 5667 5667 5667 5667 5667 5667 5668 5669 5670 5673 5674 5672 5669 5668
5695 5695 5695 5695 5695 5694 5693 5692 5690 5689 5688 5686 5685 5684 5683 5681 5682 5678 5673 5673 5673 5673 5672 5671 5670 5669 5668 5667 5665 5663 5662 5662 5661 5662 5662 5663 5663 5664 5665 5665 5664 5663 5662
5693 5692 5692 5693 5693 5692 5691 5690 5689 5687 5687 5685 5684 5684 5682 5680 5680 5678 5675 5672 5671 5670 5669 5667 5667 5665 5664 5663 5660 5658 5657 5657 5656 5656 5657 5657 5658 5658 5658 5658 5657 5657 5657
5690 5690 5690 5690 5690 5690 5689 5688 5687 5686 5686 5684 5683 5682 5682 5681 5680 5678 5675 5673 5670 5669 5667 5666 5664 5662 5661 5659 5657 5655 5653 5652 5652 5651 5652 5652 5652 5652 5652 5652 5652 5651 5651
5688 5688 5687 5687 5687 5687 5687 5686 5686 5685 5685 5684 5682 5680 5678 5678 5677 5676 5674 5671 5668 5668 5666 5664 5662 5660 5658 5656 5654 5652 5650 5649 5648 5647 5646 5646 5646 5646 5646 5645 5645 5644 5644
5685 5685 5685 5685 5684 5684 5684 5684 5683 5683 5682 5681 5680 5678 5677 5676 5674 5673 5672 5671 5668 5665 5663 5661 5659 5657 5655 5653 5650 5650 5648 5645 5644 5643 5642 5641 5641 5640 5640 5639 5638 5637 5636
5683 5682 5683 5683 5682 5682 5681 5681 5680 5679 5679 5678 5676 5676 5674 5674 5672 5670 5670 5669 5668 5666 5662 5659 5656 5654 5652 5650 5647 5646 5644 5641 5640 5639 5638 5636 5636 5635 5634 5633 5632 5631 5630
5681 5681 5680 5681 5681 5680 5679 5678 5678 5677 5676 5676 5675 5673 5671 5670 5669 5668 5666 5665 5664 5663 5659 5655 5653 5652 5649 5647 5645 5643 5642 5640 5637 5635 5633 5632 5631 5630 5629 5627 5626 5624 5623
5679 5678 5678 5678 5678 5677 5677 5676 5674 5673 5673 5672 5672 5671 5670 5667 5666 5665 5663 5662 5660 5660 5657 5652 5650 5648 5646 5644 5642 5640 5639 5637 5635 5631 5629 5627 5626 5624 5623 5622 5620 5618 5617
5676 5675 5675 5674 5674 5673 5673 5673 5672 5671 5670 5669 5668 5667 5666 5665 5664 5662 5660 5659 5657 5655 5653 5650 5647 5644 5642 5640 5638 5636 5635 5633 5631 5628 5625 5623 5621 5619 5618 5616 5614 5613 5611
5674 5673 5672 5671 5670 5669 5669 5669 5669 5668 5666 5665 5664 5663 5662 5661 5660 5658 5656 5655 5653 5651 5648 5646 5643 5641 5638 5636 5634 5632 5631 5630 5627 5625 5622 5620 5617 5615 5613 5611 5609 5607 5605
5671 5670 5669 5667 5666 5665 5665 5665 5664 5663 5663 5661 5660 5659 5657 5655 5653 5652 5651 5650 5648 5646 5644 5642 5639 5638 5635 5631 5630 5628 5626 5625 5624 5621 5619 5617 5615 5613 5610 5607 5604 5602 5599
5667 5666 5664 5663 5662 5661 5659 5657 5657 5658 5658 5657 5655 5654 5652 5649 5647 5644 5642 5642 5641 5641 5640 5638 5636 5634 5632 5629 5625 5623 5621 5620 5619 5617 5615 5613 5611 5609 5607 5604 5601 5597 5594
5663 5661 5660 5659 5658 5656 5653 5651 5650 5652 5653 5653 5652 5649 5647 5644 5642 5641 5638 5635 5634 5632 5632 5633 5631 5630 5628 5626 5622 5619 5617 5615 5613 5611 5608 5609 5607 5605 5602 5600 5596 5592 5589
5659 5656 5655 5654 5653 5651 5648 5646 5645 5647 5648 5647 5646 5645 5642 5640 5637 5636 5634 5632 5631 5629 5626 5625 5625 5625 5622 5620 5617 5615 5613 5610 5608 5604 5601 5602 5602 5600 5598 5595 5590 5587 5583
5654 5652 5651 5649 5648 5646 5643 5641 5640 5642 5642 5642 5641 5639 5637 5634 5630 5627 5627 5626 5625 5623 5620 5618 5616 5615 5613 5611 5609 5607 5605 5604 5603 5602 5597 5596 5597 5595 5594 5591 5586 5582 5578
5649 5647 5646 5645 5644 5643 5639 5636 5634 5637 5637 5636 5635 5632 5628 5626 5623 5621 5621 5620 5619 5617 5615 5613 5611 5609 5607 5605 5602 5601 5600 5599 5599 5597 5594 5591 5591 5589 5588 5588 5583 5579 5574